Home   Weather   Funafuti   Past weeks

Flag for Tuvalu Past Weather in Funafuti, Tuvalu — Yesterday and Last 2 Weeks

Now
82 °F

Passing clouds.


Feels Like: 89 °F
Forecast: 83 / 88 °F
Wind: 3 mph from North

Location: Funafuti

Current Time: Sep 27, 2016 at 2:06:48 AM

Latest Report: Sep 27, 2016 at 1:00 AM


Visibility: N/A

Pressure: 29.80 "Hg

Humidity: 79%

Dew Point: 75 °F

Location of FunafutiLocation

Past Weather in Funafuti — Graph

°F

Funafuti Temperature Yesterday

Maximum temperature yesterday: 91 °F (at 1:00 PM)
Minimum temperature yesterday: 82 °F (at 12:00 AM)
Average temperature yesterday: 86 °F

High & Low Weather Summary for the Past Weeks

 TemperatureHumidityPressure
High91 °F (Sep 20, 1:00 PM)100% (Sep 18, 10:00 AM)29.95 "Hg (Sep 18, 10:00 AM)
Low75 °F (Sep 24, 3:00 AM)62% (Sep 26, 5:00 PM)29.71 "Hg (Sep 17, 4:00 PM)
Average85 °F78%29.83 "Hg
* Reported Sep 12 1:00 AM — Sep 27 1:00 AM, Funafuti, Weather by CustomWeather, © 2016

Note: Actual official high and low records may vary slightly from our data, if they occured in-between our weather recording intervals... More about our weather records

Advertising

Funafuti Weather History for the Previous 24 Hours

Scroll right to see more
 ConditionsComfort  
Time TempWeatherWind HumidityBarometerVisibility
1:00 AM
Tue, Sep 27
82 °FPassing clouds.3 mph79%29.80 "HgN/A
12:00 AM84 °FPassing clouds.3 mph74%29.83 "HgN/A
11:00 PM
Mon, Sep 26
84 °FPassing clouds.7 mph74%29.83 "HgN/A
10:00 PM84 °FPassing clouds.8 mph74%29.86 "HgN/A
9:00 PM84 °FPassing clouds.8 mph74%29.86 "HgN/A
8:00 PM84 °FPassing clouds.3 mph74%29.83 "HgN/A
7:00 PM84 °FPassing clouds.8 mph74%29.80 "HgN/A
6:00 PM86 °FPassing clouds.6 mph66%29.77 "HgN/A
5:00 PM88 °FPassing clouds.7 mph62%29.77 "HgN/A
4:00 PM88 °FPassing clouds.10 mph70%29.77 "HgN/A
3:00 PM90 °FPassing clouds.9 mph63%29.77 "HgN/A
2:00 PM91 °FPassing clouds.8 mph67%29.77 "HgN/A
1:00 PM91 °FPassing clouds.9 mph63%29.80 "HgN/A
12:00 PM90 °FPassing clouds.10 mph71%29.83 "HgN/A
11:00 AM90 °FPassing clouds.10 mph67%29.86 "HgN/A
10:00 AM88 °FScattered clouds.8 mph70%29.86 "HgN/A
9:00 AM84 °FScattered showers. Broken clouds.8 mph79%29.89 "HgN/A
8:00 AM86 °FPassing clouds.9 mph75%29.89 "HgN/A
7:00 AM84 °FPassing clouds.10 mph74%29.86 "HgN/A
6:00 AM82 °FScattered clouds.13 mph79%29.83 "HgN/A
5:00 AM82 °FPassing clouds.10 mph79%29.83 "HgN/A
4:00 AM82 °FPassing clouds.12 mph79%29.80 "HgN/A
Weather by CustomWeather, © 2016

See weather overviewHow to use our weather pages